DELTA 1 DEB, 10250

Orbit data source: Space-Track

DELTA 1 DEB, 10250 is space debris in LEO originally from a launch on Thu, 14 Jul 1977 UTC launched from the Air Force Eastern Test Range (AFETR). Debris objects in space refer to the collection of defunct objects orbiting the Earth. Examples of debris include non-operational satellites, rocket bodies, and fragments generated from explosions, collisions, or faulty payload assembly.

Loading next visibility...
Identifier
10250, 1977-065CB
Orbit
LEO
Country
Flag of USUS
Related business
Manufacturer
Unknown
Mission
Spacecraft
Bus & Motor
Unknown
Mass
Unknown
Launch date (UTC)
1977-07-14 (49 years ago)
Launch vehicle
Unknown
Launch site
Air Force Eastern Test Range (AFETR)
Object type
Payload
Rocket body
Debris
Shape & HBR
Unknown shape, 0.2 m
Radar Cross Section
Small (<0.1 m²)

Expand to show TLE details & history
Last TLE update: 8 hours ago

TLE from 8 hours ago
0 DELTA 1 DEB
1 10250U 77065CB  26132.92494476  .00000923  00000-0  15563-3 0  9999
2 10250  29.0810 355.8274 0531732 235.0101 119.9436 13.98459625303200
Epoch: 2026-05-12T22:11Z
TLE epoch observation values (Epoch: 2026-05-12T22:11:55.227Z)
Latitude
0.00004°
Longitude
152.15503°
Altitude
1,105.456 km
Speed
7.197 km/s
True Right ascension
23h 43m 18s
True Declination
0° 00' 00"
Sunlit
Object was in daylight at epoch
Visualization orbit readout
Latitude
Unknown
Longitude
Unknown
Altitude
Unknown
Speed
Unknown
Apparent Right ascension
Unknown
Apparent Declination
Unknown
Sunlit
N/A
Visualization observer readout
Local Sidereal Time
14:31:18
Azimuth
Unknown
Elevation
Unknown
Doppler factor
Unknown
Orbital elements
Apogee altitude
1,290.229 km
Perigee altitude
515.899 km
Semi-major axis
7,281.201 km
Eccentricity
0.05317
Inclination
29.081°
RAAN
355.8274°
Arg. of periapsis
235.0101°
True anomaly
125.04699°
Mean anomaly
119.9436°
Eccentric anomaly
122.51271°
Mean motion
3.49332 °/min
Orbital period
103.05 mins
BSTAR
0.00015563
Loading maneuver chart data...
Computing Atmospheric mass density...

Documentation

Showing up to 5 results
|